Miscellaneous Local Product
Issued by NWS Hastings, NE

Home | Current Version | Previous Version | Graphics & Text | Print | Product List | Glossary On
Versions: 1 2 3 4 5 6 7 8 9 10 11 12 13 14 15 16 17 18 19 20 21 22 23 24 25 26 27 28 29 30 31 32 33 34 35 36 37 38 39 40 41 42 43 44 45 46 47 48 49 50
487
AXUS43 KGID 232302
MISGRI

GID CWA HOURLY WEATHER ROUNDUP
NATIONAL WEATHER SERVICE HASTINGS NE
600 PM CDT TUE AUG 23 2016

NOTE: "FAIR" INDICATES FEW OR NO CLOUDS BELOW 12,000 FEET WITH NO
SIGNIFICANT WEATHER AND/OR OBSTRUCTIONS TO VISIBILITY.

...SOUTH CENTRAL NEBRASKA...

CITY           SKY/WX    TMP DP  RH WIND       PRES   REMARKS
GRAND ISLAND   PTSUNNY   90  68  48 S10       29.79F HX  94
HASTINGS       PTSUNNY   91  67  44 S8G18     29.80F HX  94
KEARNEY        SUNNY     91  66  43 S7        29.78F HX  94
ORD            SUNNY     88  66  48 S8        29.79F HX  90
YORK           SUNNY     88  72  58 S14G21    29.80F HX  94
AURORA         PTSUNNY   88  69  53 S10       29.79F HX  92
LEXINGTON      SUNNY     88  65  45 E3        29.82S HX  90
HOLDREGE       SUNNY     88  66  47 N3        29.81F HX  90
HEBRON         MOSUNNY   88  71  56 S15G25    29.81S HX  94

...NEBRASKA PANHANDLE...

CITY           SKY/WX    TMP DP  RH WIND       PRES   REMARKS
CHADRON        SUNNY     87  27  11 NE17      29.95R
ALLIANCE       SUNNY     83  37  19 NE17G24   29.97R
SCOTTSBLUFF    MOSUNNY   84  36  18 N14       29.98S
SIDNEY         SUNNY     87  30  13 N17       30.02R

...WESTERN AND NORTH CENTRAL NEBRASKA...

CITY           SKY/WX    TMP DP  RH WIND       PRES   REMARKS
VALENTINE      SUNNY     85  42  22 N17G25    29.89R
AINSWORTH      SUNNY     82  55  38 NW17      29.87S
ONEILL         SUNNY     89  63  42 S12       29.80S HX  90
BROKEN BOW     SUNNY     87  67  51 S6        29.82S HX  90
IMPERIAL       SUNNY     90  37  15 N17       29.91R
NORTH PLATTE   MOSUNNY   87  49  26 N12       29.87R
MCCOOK         MOSUNNY   93  51  23 N9        29.82S HX  90

...EASTERN NEBRASKA...

CITY           SKY/WX    TMP DP  RH WIND       PRES   REMARKS
NORFOLK        PTSUNNY   85  71  63 S9        29.80R HX  90
SO SIOUX CITY  PTSUNNY   82  74  76 S12       29.80F
TEKAMAH        MOSUNNY   83  74  74 SE12      29.81S
COLUMBUS       PTSUNNY   84  70  61 S12       29.79F
ALBION         PTSUNNY   86  72  62 S8        29.80S HX  92
OMAHA EPPLEY   PTSUNNY   84  74  71 SE17      29.82S HX  91
OFFUTT AFB     PTSUNNY   83  73  71 SE18      29.82S THUNDER
MILLARD        CLOUDY    84  76  75 SE13G21   29.81F HX  92
LINCOLN        PTSUNNY   89  73  59 S22G28    29.80F HX  97
NEBRASKA CITY  MOSUNNY   84  75  74 S16       29.85F HX  93
BEATRICE       SUNNY     88  72  59 S18G26    29.83S HX  94
FALLS CITY     PTSUNNY   88  72  58 S18G32    29.86S HX  94

...NORTHERN KANSAS...

CITY           SKY/WX    TMP DP  RH WIND       PRES   REMARKS
GOODLAND       SUNNY     92  39  15 NE10      29.92R
HILL CITY      SUNNY     95  59  30 VRB3      29.79F HX  94
NORTON         CLEAR     93  46  20 W10       29.80S
SMITH CENTER   SUNNY     95  63  34 S15G21    29.77F HX  96
BELOIT         PTSUNNY   84  72  65 SE12G21   29.79R
HAYS           SUNNY     99  54  22 SW15      29.79R HX  96
RUSSELL        SUNNY     94  65  38 S22G30    29.78S HX  96
CONCORDIA      TSTM      81  72  74 S8        29.84R
SALINA         SUNNY     93  71  48 S24G36    29.82F HX 100
TOPEKA         PTSUNNY   85  72  65 S16G29    29.91F HX  91



USA.gov is the U.S. government's official web portal to all federal, state and local government web resources and services.